Other Public Products
Issued by NWS Grand Forks, ND

Home | Current Version | Previous Version | Text Only | Print | Product List | Glossary On
Versions: 1 2 3 4 5 6 7 8 9 10 11 12 13 14 15 16 17 18 19 20 21 22 23 24 25 26 27 28 29 30 31 32 33 34 35 36 37 38 39 40 41 42 43 44 45 46 47 48 49 50
000
FPUS83 KFGF 201510
OPUFGF
PRAIRIE TO PINES WEATHER ROUNDUP
NATIONAL WEATHER SERVICE EASTERN NORTH DAKOTA/GRAND FORKS ND
1000 AM CDT THU JUL 20 2017

 **SATELLITE DATA USED TO AUGMENT SKY COVER AT AUTOMATED STATIONS**
 *****  WEATHER ACROSS EASTERN NORTH DAKOTA  *****

CITY           SKY/WX    TMP DP  RH WIND       PRES   REMARKS
GRAND FORKS    FAIR      70  61  73 CALM      30.01F
GRAND FORKS AF FAIR      68  60  74 N3        30.02F
GRAND CITY NWS NOT AVBL
BUXTON         NOT AVBL
DEVILS LAKE    FAIR      71  58  63 SE5       30.04S
FARGO          FAIR      74  64  71 NE5       30.02S
WAHPETON ARPT  PTSUNNY   66  64  94 CALM      30.04R
$$

 *****  WEATHER ACROSS CENTRAL AND WESTERN NORTH DAKOTA  *****

CITY           SKY/WX    TMP DP  RH WIND       PRES   REMARKS
JAMESTOWN      FAIR      76  61  59 SE8       30.04R
BISMARCK       FAIR      77  65  66 SE8       30.03F
MINOT          FAIR      76  59  55 E14       29.99F
MINOT AFB      FAIR      70  62  75 SE13      29.98F
GARRISON         N/A     76  64  66 SE9       30.01R
WILLISTON        N/A    N/A N/A N/A MISG      29.96S
DICKINSON      FAIR      80  63  55 S20       29.99S
HETTINGER      FAIR      78  66  66 S14G26    30.05S
$$

 *****  OTHER OBSERVATIONS NORTHEAST NORTH DAKOTA  *****

CITY           SKY/WX    TMP DP  RH WIND       PRES   REMARKS
WALHALLA       NOT AVBL
LANGDON        PTSUNNY   66  64  94 SE8       30.05S
CAVALIER       FAIR      68  57  68 CALM      30.02S
GRAFTON        FAIR      70  57  64 VRB6      30.04S
CANDO          NOT AVBL
FORT TOTTEN      N/A     73  57  57 SE5       29.95S
ROLLA            N/A     66  63  88 E5        30.05S
RUGBY          NOT AVBL
 ***** THE ABOVE OBSERVATIONS ARE NON NWS ARE NOT QUALITY
        CONTROLLED AND MAY MIS-REPORT RAIN FOR SNOW...
$$

 *****  OTHER OBSERVATIONS SOUTHEAST NORTH DAKOTA *****

CITY           SKY/WX    TMP DP  RH WIND       PRES   REMARKS
COOPERSTOWN    FAIR      72  63  73 E7        30.04F
VALLEY CITY    FAIR      73  59  60 NE7G14    30.06R
OAKES          NOT AVBL
GWINNER        SUNNY     73  68  83 CALM      30.04S
SHEYENNE NWR     N/A     76  67  72 NE6       29.95S
BUFFALO        NOT AVBL
WYNDMERE       NOT AVBL
 ***** THE ABOVE OBSERVATIONS ARE NON NWS ARE NOT QUALITY
       CONTROLLED AND MAY MIS-REPORT RAIN FOR SNOW...
$$

  *****  WEATHER ACROSS NORTHERN MINNESOTA  *****

CITY           SKY/WX    TMP DP  RH WIND       PRES   REMARKS
FLAG ISLAND    FAIR      66  54  63 N6        30.01S
WARROAD        FAIR      68  55  64 N6        30.03S
ROSEAU         FAIR      68  57  68 CALM      30.03R
HALLOCK        FAIR      70  59  68 E5        30.01F
THF RVR FALLS  FAIR      70  57  63 E8        30.04S
HALSTAD        NOT AVBL
FOSSTON        FAIR      72  66  83 E3        30.03S
BAUDETTE       FAIR      70  56  61 NW8       30.01R
WASKISH        PTSUNNY   72  59  64 W3        30.02S
CROOKSTON      FAIR      72  63  73 CALM      30.02F
$$
  *****  WEATHER ACROSS CENTRAL AND WEST MINNESOTA  *****

CITY           SKY/WX    TMP DP  RH WIND       PRES   REMARKS
BEMIDJI        FAIR      68  63  83 NW5       30.03S
PARK RAPIDS    FAIR      74  63  68 VRB3      30.03R
WADENA         FAIR      73  68  83 NE5       30.03S
DETROIT LAKES  FAIR      70  64  83 CALM      30.05R
MOORHEAD       FAIR      72  64  78 NE6       30.03S
FERGUS FALLS   FAIR      72  72 100 CALM      30.02R
ELBOW LAKE     CLOUDY    68  68 100 SE3       30.04R FOG
MORRIS MN      FAIR      77  70  78 CALM      30.02S
STAPLES        FAIR      68  66  94 CALM      30.03S
WHEATON        FAIR      73  68  83 SW3       30.03S
$$
  *****  WEATHER ELSEWHERE ACROSS MINNESOTA  *****

CITY           SKY/WX    TMP DP  RH WIND       PRES   REMARKS
DULUTH         FAIR      73  65  75 NW10      29.99S
INTRNTL FALLS  FAIR      72  58  61 NW10      29.99S
ELY            PTSUNNY   72  63  73 NW5       29.99R
CLOQUET        FAIR      73  64  73 NW6       30.00F
BRAINERD       FAIR      73  65  75 CALM      30.03S
HIBBING        FAIR      73  66  78 NW6       30.00S
ALEXANDRIA     FAIR      73  68  84 CALM      30.05S
SAINT CLOUD    FAIR      74  68  81 N9        30.02S
MINNEAPOLIS    PTSUNNY   75  69  81 CALM      30.02R
$$

  *****  WEATHER ACROSS SOUTH DAKOTA  *****

CITY           SKY/WX    TMP DP  RH WIND       PRES   REMARKS
SIOUX FALLS    CLOUDY    79  69  71 E10       30.01R
BROOKINGS      FAIR      75  66  73 E10       30.04S
WATERTOWN      FAIR      75  68  78 NE5       30.03F
HURON          FAIR      74  70  87 E6        30.00F
SISSETON         N/A     76  71  85 VRB3      30.01F
ABERDEEN       FAIR      75  71  87 S3        30.04S
MITCHELL       FAIR      77  70  79 SE10      30.02R
PIERRE         FAIR      80  64  58 SE12      30.02R
MOBRIDGE       FAIR      75  71  87 CALM      30.02S
RAPID CITY     FAIR      78  67  68 S6        30.08F
$$

  *****  SOME WEATHER IN NEARBY STATES *****

CITY           SKY/WX    TMP DP  RH WIND       PRES   REMARKS
GLASGOW MT     NOT AVBL
GREAT FALLS MT FAIR      70  35  27 SW8       29.96S
CHEYENNE WY    FAIR      73  55  53 S10       30.30S
SCOTTSBLUFF NE PTSUNNY   73  64  73 N7        30.16R
OMAHA NE       PTSUNNY   88  69  53 SW5       29.95S HX  92
DES MOINES IA  PTSUNNY   88  73  61 W8        29.96S HX  95
DAVENPORT IA   FAIR      76  71  85 S9        30.02S
CHICAGO IL     PTSUNNY   74  69  85 SW13G24   29.97F
EAU CLAIRE WI  PTSUNNY   72  68  87 W6        30.00F
LA CROSSE WI   FAIR      78  69  73 S5        30.00R
$$

  *****  SOME NATIONAL WEATHER *****

CITY           SKY/WX    TMP DP  RH WIND       PRES   REMARKS
LA GUARDIA NY  FAIR      89  73  59 VRB3      29.96F HX  97
RALEIGH NC     FAIR      90  70  51 NW3       30.09R HX  95
ATLANTA GA     FAIR      87  70  56 NW9       30.14R HX  92
NEW ORLEANS LA FAIR      88  77  69 NW7       30.12S HX 100
OKLAHOMA CITY  FAIR      88  68  51 SW15      30.11S HX  91
ALBUQUERQUE NM PTSUNNY   75  51  43 W8        30.31S
SALT LAKE CITY PTSUNNY   81  57  43 SE17      30.08R
LOS ANGELES CA FAIR      71  64  78 E5        30.00S
BOISE ID       FAIR      70  44  39 NW5       30.03R
SEATTLE WA     PTSUNNY   60  55  83 S13       30.11R
$$

*** WEATHER ACROSS MANITOBA...SASKATCHEWAN AND ONTARIO ***
                ***ONTARIO***

CITY           SKY/WX    TMP DP  RH WIND       PRES   REMARKS
GERALDTON      CLOUDY    68  59  73 W6        29.84S
THUNDER BAY    MOSUNNY   75  64  69 W8        29.88S
SIOUX LOOKOUT  MOSUNNY   68  46  45 N8        29.96R
TORONTO        TSTM      64  59  82 NW14G22   30.03R VSB 3/4
BIG TROUT LK   MOSUNNY   61  46  59 NW14G24   29.78R
PICKLE LAKE    MOSUNNY   66  50  55 W12G20    29.88S
DRYDEN         MOSUNNY   68  54  60 NW7       29.99R
KENORA         PTSUNNY   66  48  52 W7        30.02R
$$
                *** MANITOBA***

CITY           SKY/WX    TMP DP  RH WIND       PRES   REMARKS
BRANDON        MOSUNNY   66  55  68 SW5       30.02F
DAUPHIN        SUNNY     68  57  68 W7        29.99F
ISLAND LAKE    MOSUNNY   61  48  63 W10       29.87S
PILOT MOUND      N/A     64  59  82 SE3         N/A
THE PAS        MOSUNNY   63  55  77 N7        29.93R
THOMPSON       MOSUNNY   57  41  54 NW10G17   29.90F
WINNIPEG       MOSUNNY   68  57  68 W3        30.01F
LYNN LAKE      SUNNY     55  39  54 N14G20    29.96S
CHURCHILL      PTSUNNY   48  41  76 NW22      29.74R
GILLAM         PTSUNNY   54  37  54 NW21      29.82R
$$
                ***SASKATCHEWAN***

CITY           SKY/WX    TMP DP  RH WIND       PRES   REMARKS
ESTEVAN        MOSUNNY   72  54  53 SE12      30.00F
KINDERSLEY     MOSUNNY   64  54  68 CALM      29.93S
LLOYDMINSTER   MOSUNNY   66  57  72 SE6       29.95R SMOKE
PRINCE ALBERT  PTSUNNY   66  59  77 VRB2      29.95S
REGINA         MOSUNNY   68  52  56 SE12G18   30.00S
YORKTON        SUNNY     66  52  59 S7        30.00S


USA.gov is the U.S. government's official web portal to all federal, state and local government web resources and services.